Powrót do katalogu

DELTA 1 DEB

AktywnySSO
NORAD 13570·DEBRIS·🇺🇸 United States

Wystrzelony Mar 5, 1978 z Vandenberg Space Force Base

Loading…

Następne Przeloty (najbliższe 24 godziny)

TLE

ŚwieżeSource: Space-Track

Epoka: Sep 14, 2026, 08:53 UTC

1 13570U 78026FH  26257.37060666  .00000648  00000-0  20413-3 0  9996
2 13570  98.5233 293.4995 0042301 289.8578  82.3226 14.43194913362706

Śledź DELTA 1 DEB w czasie rzeczywistym z AllMySat

Download on the App Store